Погода в Поповке

Россия / Республика Татарстан     54°11′11″N   53°14′12″E
темп.,
°C
ветер,
м/с
пор.,
м/с
влажн.,
%
обл.,
%
осадки,
мм/ч
давл.,
гПа
погр.,
м
25 января, вт
вт2500:00−19ю229547 0.0 10379
03:00−20ююз119554 0.0 10369
06:00−22вюв11965 0.0 10359
09:00−19ю22935 0.0 103437
12:00−13ю24846 0.0 1032125
15:00−15ю229324 0.0 103114
18:00−20ю2210063 0.0 103110
21:00−20ю229993 0.0 103027
26 января, ср
ср2600:00−20ю2210074 0.0 102827
03:00−20ююв2210080 0.0 102723
06:00−19ююв23100100 0.0 102633
09:00−17ююв2499100 0.0 102598
12:00−12ююв3895100 0.0 1023225
15:00−12юв2696100 0.1 1021191
18:00−10ююв2796100 0.4 1020322
21:00−10ю2796100 0.9 1019301
27 января, чт
чт2700:00−10ю2696100 0.5 1019243
03:00−9ююз2796100 0.9 1020282
06:00−11ююз2797100 0.1 1020157
09:00−11ююз3896100 0.1 1022242
12:00−9юз4893100 0.0 1022329
15:00−11ююз359692 0.1 1023106
18:00−17ю22100100 0.1 102431
21:00−18ююз22100100 0.1 102420
28 января, пт
пт2800:00−19ю22100100 0.1 102416
03:00−20ююв11100100 0.1 102410
06:00−21ююв11100100 0.0 10239
09:00−17вюв1110099 0.0 102314
12:00−9в11915 0.0 102186
15:00−10всв119699 0.0 102010
18:00−11в2297100 0.0 101935
21:00−9в1197100 0.2 101822
29 января, сб
сб2900:00−10в1197100 0.3 101723
03:00−10вюв119898 0.6 101710
06:00−12юв119976 0.0 10169
09:00−12ююв249769 0.1 101696
12:00−9ю3694100 0.0 1015215
15:00−9ююв3895100 0.0 1015257
18:00−10ююв41195100 0.1 1014311
21:00−8ю41195100 0.8 1012399